Weather History for KGUS - January, 2013

Change the Weather History Date:

Thursday, January 10, 2013

  Actual Average Record
Temperature  
Mean Temperature 32 °F -  
Max Temperature 39 °F 29 °F - (-1)
Min Temperature 25 °F 18 °F - (-1)
Degree Days  
Heating Degree Days 33    
Moisture  
Dew Point 33 °F    
Average Humidity 87    
Maximum Humidity 100    
Minimum Humidity 70    
Precipitation  
Precipitation 0.20 in - - ()
Sea Level Pressure  
Sea Level Pressure 30.25 in    
Wind  
Wind Speed 10 mph (ESE)    
Max Wind Speed 18 mph    
Max Gust Speed -    
Visibility 9 miles    
Events Rain    
Averages and records for this station are not official NWS values.
T = Trace of Precipitation, MM = Missing Value Source: NWS Daily Summary

Daily Weather History Graph

Daily Weather History Graph

Search for Another Location

Airport or City:

Trip Planner

Search our weather history database for the weather conditions in past years. The results will help you decide how hot, cold, wet, or windy it might be!

Date:

Astronomy

Jan. 10, 2013 Rise Set
Actual Time 8:07 AM EST 5:37 PM EST
Civil Twilight 7:37 AM EST 6:07 PM EST
Nautical Twilight 7:03 AM EST 6:41 PM EST
Astronomical Twilight 6:30 AM EST 7:14 PM EST
Moon 6:47 AM EST (1/10) 4:44 PM EST (1/10)
Length of Visible Light 10h 29m
Length of Day
9h 29m
Waning Crescent, 2% of the Moon is Illuminated
Jan 10
Waning Crescent
Jan 11
New
Jan 18
First Quarter
Jan 26
Full
Feb 3
Last Quarter

Hourly Weather History & Observations

Time (EST) Temp. Windchill Dew Point Humidity Pressure Visibility Wind Dir Wind Speed Gust Speed Precip Events Conditions
12:55 AM 27.7 °F - 23.4 °F 84% 30.54 in 10.0 mi Calm Calm - N/A   Clear
1:55 AM 26.2 °F - 22.3 °F 85% 30.53 in 10.0 mi Calm Calm - N/A   Clear
2:55 AM 26.6 °F - 23.2 °F 87% 30.52 in 10.0 mi Calm Calm - N/A   Clear
3:55 AM 25.0 °F 19.3 °F 22.1 °F 89% 30.51 in 10.0 mi ENE 4.6 mph - N/A   Clear
4:55 AM 27.9 °F 24.0 °F 23.9 °F 85% 30.51 in 10.0 mi East 3.5 mph - N/A   Clear
5:55 AM 28.0 °F 24.2 °F 23.5 °F 83% 30.51 in 10.0 mi ESE 3.5 mph - N/A   Clear
6:55 AM 29.1 °F 24.1 °F 23.4 °F 79% 30.52 in 10.0 mi East 4.6 mph - N/A   Clear
7:55 AM 30.0 °F 23.2 °F 25.0 °F 82% 30.51 in 10.0 mi ESE 6.9 mph - N/A   Clear
8:55 AM 31.8 °F 23.3 °F 25.2 °F 76% 30.50 in 10.0 mi ESE 10.4 mph - N/A   Partly Cloudy
9:55 AM 33.3 °F 24.6 °F 26.6 °F 77% 30.48 in 10.0 mi East 11.5 mph - N/A   Mostly Cloudy
10:33 AM 35.6 °F 28.0 °F 26.6 °F 70% 30.45 in 10.0 mi ESE 10.4 mph - N/A   Overcast
10:55 AM 35.6 °F 27.1 °F 27.5 °F 72% 30.48 in 10.0 mi East 12.7 mph - N/A   Overcast
11:55 AM 37.0 °F 28.9 °F 29.1 °F 73% 30.45 in 10.0 mi ESE 12.7 mph - N/A   Mostly Cloudy
12:55 PM 37.9 °F 29.2 °F 29.1 °F 71% 30.40 in 10.0 mi East 15.0 mph - N/A   Scattered Clouds
1:55 PM 39.0 °F 31.0 °F 29.8 °F 70% 30.36 in 10.0 mi East 13.8 mph - N/A   Mostly Cloudy
2:13 PM 39.2 °F 31.2 °F 30.2 °F 70% 30.34 in 10.0 mi ESE 13.8 mph - N/A Rain Light Rain
2:22 PM 39.2 °F 30.8 °F 30.2 °F 70% 30.33 in 10.0 mi ESE 15.0 mph - N/A   Mostly Cloudy
2:40 PM 39.2 °F 30.8 °F 30.2 °F 70% 30.32 in 7.0 mi ESE 15.0 mph - N/A Rain Light Rain
2:55 PM 39.6 °F 32.1 °F 30.6 °F 70% 30.30 in 7.0 mi East 12.7 mph - 0.00 in Rain Light Rain
3:27 PM 39.2 °F 30.8 °F 30.2 °F 70% 30.30 in 10.0 mi ESE 15.0 mph - N/A   Scattered Clouds
3:40 PM 39.2 °F 31.2 °F 30.2 °F 70% 30.29 in 10.0 mi ESE 13.8 mph - N/A   Mostly Cloudy
3:55 PM 39.2 °F 30.8 °F 30.6 °F 71% 30.29 in 10.0 mi ESE 15.0 mph - 0.00 in   Overcast
4:01 PM 39.2 °F 30.8 °F 30.2 °F 70% 30.29 in 10.0 mi ESE 15.0 mph - N/A Rain Light Rain
4:14 PM 39.2 °F 31.6 °F 32.0 °F 75% 30.28 in 10.0 mi East 12.7 mph - N/A   Overcast
4:33 PM 37.4 °F 30.3 °F 32.0 °F 81% 30.29 in 10.0 mi ESE 10.4 mph - N/A Rain Light Rain
4:55 PM 37.9 °F 30.0 °F 31.8 °F 79% 30.28 in 10.0 mi ESE 12.7 mph - 0.00 in   Light Drizzle
5:04 PM 37.4 °F 29.3 °F 32.0 °F 81% 30.27 in 10.0 mi ESE 12.7 mph - N/A   Overcast
5:07 PM 37.4 °F 29.3 °F 32.0 °F 81% 30.27 in 10.0 mi ESE 12.7 mph - N/A Rain Light Rain
5:44 PM 37.4 °F 28.2 °F 32.0 °F 81% 30.25 in 10.0 mi ESE 16.1 mph - N/A Rain Light Rain
5:55 PM 36.9 °F 28.2 °F 33.1 °F 86% 30.25 in 10.0 mi ESE 13.8 mph - 0.02 in   Overcast
5:57 PM 37.4 °F 28.5 °F 33.8 °F 87% 30.25 in 10.0 mi ESE 15.0 mph - N/A   Overcast
6:01 PM 37.4 °F 28.2 °F 33.8 °F 87% 30.25 in 10.0 mi ESE 16.1 mph - N/A   Light Drizzle
6:26 PM 35.6 °F 25.5 °F 33.8 °F 93% 30.23 in 4.0 mi ESE 17.3 mph - N/A Rain Rain
6:28 PM 35.6 °F 25.9 °F 33.8 °F 93% 30.23 in 5.0 mi ESE 16.1 mph - N/A Rain Light Rain
6:40 PM 35.6 °F 26.2 °F 35.6 °F 100% 30.22 in 10.0 mi ESE 15.0 mph - N/A   Overcast
6:41 PM 35.6 °F 26.2 °F 35.6 °F 100% 30.22 in 10.0 mi ESE 15.0 mph - N/A   Overcast
6:55 PM 36.1 °F 27.7 °F 34.7 °F 94% 30.22 in 10.0 mi ESE 12.7 mph - 0.06 in   Overcast
6:59 PM 35.6 °F 25.9 °F 35.6 °F 100% 30.21 in 10.0 mi ESE 16.1 mph - N/A Rain Light Rain
7:06 PM 37.4 °F 29.3 °F 33.8 °F 87% 30.21 in 9.0 mi ESE 12.7 mph - N/A Rain Light Rain
7:10 PM 37.4 °F 28.9 °F 35.6 °F 93% 30.20 in 10.0 mi ESE 13.8 mph - N/A   Overcast
7:12 PM 37.4 °F 28.2 °F 35.6 °F 93% 30.19 in 10.0 mi ESE 16.1 mph - N/A Rain Light Rain
7:26 PM 37.4 °F 28.5 °F 35.6 °F 93% 30.19 in 10.0 mi ESE 15.0 mph - N/A   Overcast
7:37 PM 37.4 °F 28.2 °F 35.6 °F 93% 30.17 in 10.0 mi ESE 16.1 mph - N/A   Overcast
7:46 PM 37.4 °F 28.5 °F 35.6 °F 93% 30.17 in 10.0 mi ESE 15.0 mph - N/A   Overcast
7:55 PM 37.0 °F 27.0 °F 35.1 °F 93% 30.16 in 10.0 mi ESE 18.4 mph - 0.01 in   Overcast
8:07 PM 37.4 °F 27.8 °F 35.6 °F 93% 30.15 in 10.0 mi ESE 17.3 mph - N/A Rain Light Rain
8:21 PM 37.4 °F 27.5 °F 35.6 °F 93% 30.14 in 10.0 mi ESE 18.4 mph - N/A Rain Light Rain
8:28 PM 37.4 °F 27.5 °F 35.6 °F 93% 30.14 in 9.0 mi ESE 18.4 mph - N/A Rain Light Rain
8:32 PM 37.4 °F 27.5 °F 35.6 °F 93% 30.14 in 10.0 mi ESE 18.4 mph - N/A   Overcast
8:55 PM 37.0 °F 27.4 °F 35.6 °F 95% 30.12 in 10.0 mi ESE 17.3 mph - 0.00 in   Overcast
9:02 PM 37.4 °F 27.8 °F 35.6 °F 93% 30.12 in 6.0 mi ESE 17.3 mph - N/A Rain Light Rain
9:04 PM 37.4 °F 27.8 °F 35.6 °F 93% 30.12 in 4.0 mi ESE 17.3 mph - N/A Rain Light Rain
9:08 PM 37.4 °F 27.8 °F 35.6 °F 93% 30.12 in 2.5 mi ESE 17.3 mph - N/A Rain Rain
9:13 PM 37.4 °F 28.2 °F 35.6 °F 93% 30.12 in 3.0 mi ESE 16.1 mph - N/A Rain Light Rain
9:18 PM 37.4 °F 28.9 °F 35.6 °F 93% 30.12 in 5.0 mi ESE 13.8 mph - N/A Rain Light Rain
9:39 PM 37.4 °F 27.8 °F 37.4 °F 100% 30.10 in 10.0 mi ESE 17.3 mph - N/A   Overcast
9:46 PM 37.4 °F 28.5 °F 37.4 °F 100% 30.10 in 10.0 mi ESE 15.0 mph - N/A   Overcast
9:47 PM 37.4 °F 28.5 °F 37.4 °F 100% 30.10 in 10.0 mi ESE 15.0 mph - N/A   Light Drizzle
9:52 PM 37.4 °F 29.3 °F 37.4 °F 100% 30.10 in 10.0 mi ESE 12.7 mph - N/A   Overcast
9:55 PM 37.6 °F 29.6 °F 37.0 °F 98% 30.10 in 10.0 mi ESE 12.7 mph - 0.09 in   Overcast
10:51 PM 39.2 °F 31.6 °F 39.2 °F 100% 30.07 in 10.0 mi SE 12.7 mph - N/A Rain Light Rain
10:55 PM 38.7 °F 31.4 °F 38.5 °F 99% 30.07 in 9.0 mi ESE 11.5 mph - 0.01 in Rain Light Rain
11:08 PM 39.2 °F 32.0 °F 39.2 °F 100% 30.06 in 10.0 mi SE 11.5 mph - N/A Rain Light Rain
11:12 PM 39.2 °F 31.6 °F 39.2 °F 100% 30.06 in 10.0 mi ESE 12.7 mph - N/A Rain Light Rain
11:21 PM 39.2 °F 31.6 °F 39.2 °F 100% 30.05 in 10.0 mi ESE 12.7 mph - N/A   Overcast
11:24 PM 39.2 °F 31.6 °F 39.2 °F 100% 30.05 in 10.0 mi ESE 12.7 mph - N/A Rain Light Rain
11:49 PM 39.2 °F 32.0 °F 39.2 °F 100% 30.04 in 10.0 mi ESE 11.5 mph - N/A   Mostly Cloudy
11:53 PM 39.2 °F 32.0 °F 39.2 °F 100% 30.04 in 10.0 mi ESE 11.5 mph - N/A Rain Light Rain
11:55 PM 38.8 °F 32.1 °F 38.8 °F 100% 30.04 in 10.0 mi ESE 10.4 mph - 0.01 in Rain Light Rain